INTELSAT 9 (IS-9)

Last updated on Thu Nov 21 2024 00:02:40 GMT+0000 (Coordinated Universal Time)

1 26451U 00043A 24324.80806593 -.00000014 00000+0 00000+0 0 9993 2 26451 9.1271 54.3341 0003775 177.2640 184.8732 1.00272094 38389
UTC large
Height (km)
Speed (km/s)
/
Latitude / Longitude
Inclination (degrees)
Orbital Period (minutes)
Azimuth
Elevation
Range (km)
Doppler Factor

Next 0 passes for location: London (51.5072 / 0.1276)

Sorry there are no passes over London.